Auburn, CA

7:31 AM PST on November 12, 2019 (GMT -0800)
Auburn Municipal

Weather History for KAUN - September, 2019

Change the Weather History Date:

Monday, September 9, 2019

  Actual Average Record
Temperature  
Mean Temperature 68 °F -  
Max Temperature 78 °F 88 °F 102 °F (1957)
Min Temperature 57 °F 59 °F 44 °F (2010)
Cooling Degree Days 2    
Growing Degree Days 18 (Base 50)    
Moisture  
Dew Point 48 °F    
Average Humidity 50    
Maximum Humidity 67    
Minimum Humidity 29    
Precipitation  
Precipitation 0.00 in - - ()
Sea Level Pressure  
Sea Level Pressure 29.92 in    
Wind  
Wind Speed 5 mph ()    
Max Wind Speed 10 mph    
Max Gust Speed 14 mph    
Visibility 10.0 miles    
Events      
Averages and records for this station are not official NWS values.
T = Trace of Precipitation, MM = Missing Value Source: Averaged Metar Reports

Daily Weather History Graph

Daily Weather History Graph

Search for Another Location

Airport or City:

Astronomy

Sep. 09, 2019 Rise Set
Actual Time 6:40 AM PDT 7:22 PM PDT
Civil Twilight 6:13 AM PDT 7:49 PM PDT
Nautical Twilight 5:41 AM PDT 8:21 PM PDT
Astronomical Twilight 5:08 AM PDT 8:53 PM PDT
Moon 5:19 PM PDT (9/9) 2:18 AM PDT (9/9)
Length of Visible Light 13h 36m
Length of Day
12h 42m
Waxing Gibbous, 83% of the Moon is Illuminated
Sep 9
Waxing Gibbous
Sep 13
Full
Sep 21
Last Quarter
Sep 28
New
Oct 5
First Quarter

Hourly Weather History & Observations

Time (PDT) Temp. Dew Point Humidity Pressure Visibility Wind Dir Wind Speed Gust Speed Precip Events Conditions
12:15 AM 62.6 °F 48.2 °F 59% 29.96 in 10.0 mi East 3.5 mph - N/A   Clear
12:35 AM 60.8 °F 48.2 °F 63% 29.96 in 10.0 mi East 4.6 mph - N/A   Clear
12:55 AM 62.6 °F 48.2 °F 59% 29.96 in 10.0 mi East 5.8 mph - N/A   Clear
1:15 AM 62.6 °F 48.2 °F 59% 29.96 in 10.0 mi East 5.8 mph - N/A   Clear
1:35 AM 62.6 °F 48.2 °F 59% 29.95 in 10.0 mi East 6.9 mph - N/A   Clear
1:55 AM 62.6 °F 48.2 °F 59% 29.95 in 10.0 mi East 8.1 mph - N/A   Clear
2:15 AM 62.6 °F 48.2 °F 59% 29.95 in 10.0 mi East 6.9 mph - N/A   Clear
2:35 AM 62.6 °F 48.2 °F 59% 29.95 in 10.0 mi East 8.1 mph - N/A   Clear
2:55 AM 62.6 °F 48.2 °F 59% 29.94 in 10.0 mi East 8.1 mph - N/A   Clear
3:15 AM 62.6 °F 48.2 °F 59% 29.94 in 10.0 mi East 8.1 mph - N/A   Clear
3:35 AM 60.8 °F 48.2 °F 63% 29.94 in 10.0 mi East 8.1 mph - N/A   Clear
3:55 AM 60.8 °F 48.2 °F 63% 29.94 in 10.0 mi East 8.1 mph - N/A   Clear
4:15 AM 60.8 °F 48.2 °F 63% 29.93 in 10.0 mi East 8.1 mph - N/A   Clear
4:35 AM 60.8 °F 48.2 °F 63% 29.94 in 10.0 mi East 8.1 mph - N/A   Clear
4:55 AM 60.8 °F 48.2 °F 63% 29.93 in 10.0 mi East 8.1 mph - N/A   Clear
5:15 AM 60.8 °F 46.4 °F 59% 29.93 in 10.0 mi East 4.6 mph - N/A   Clear
5:35 AM 60.8 °F 46.4 °F 59% 29.93 in 10.0 mi Calm Calm - N/A   Clear
5:55 AM 59.0 °F 46.4 °F 63% 29.93 in 10.0 mi ESE 4.6 mph - N/A   Clear
6:15 AM 59.0 °F 46.4 °F 63% 29.93 in 10.0 mi East 6.9 mph - N/A   Clear
6:35 AM 59.0 °F 46.4 °F 63% 29.94 in 10.0 mi East 5.8 mph - N/A   Clear
6:55 AM 57.2 °F 46.4 °F 67% 29.94 in 10.0 mi Calm Calm - N/A   Clear
7:15 AM 59.0 °F 46.4 °F 63% 29.95 in 10.0 mi Calm Calm - N/A   Clear
7:35 AM 60.8 °F 46.4 °F 59% 29.95 in 10.0 mi Calm Calm - N/A   Clear
7:55 AM 60.8 °F 48.2 °F 63% 29.95 in 10.0 mi Calm Calm - N/A   Clear
8:15 AM 62.6 °F 48.2 °F 59% 29.96 in 10.0 mi Calm Calm - N/A   Clear
8:35 AM 64.4 °F 48.2 °F 56% 29.96 in 10.0 mi Calm Calm - N/A   Clear
8:55 AM 66.2 °F 46.4 °F 49% 29.97 in 10.0 mi Calm Calm - N/A   Clear
9:15 AM 68.0 °F 48.2 °F 49% 29.98 in 10.0 mi Calm Calm - N/A   Clear
9:35 AM 68.0 °F 48.2 °F 49% 29.98 in 10.0 mi Calm Calm - N/A   Clear
9:55 AM 68.0 °F 48.2 °F 49% 29.98 in 10.0 mi Calm Calm - N/A   Clear
10:15 AM 69.8 °F 48.2 °F 46% 29.97 in 10.0 mi Calm Calm - N/A   Clear
10:35 AM 71.6 °F 48.2 °F 43% 29.97 in 10.0 mi Variable 4.6 mph - N/A   Clear
10:55 AM 71.6 °F 48.2 °F 43% 29.96 in 10.0 mi Calm Calm - N/A   Clear
11:15 AM 73.4 °F 50.0 °F 44% 29.96 in 10.0 mi West 6.9 mph - N/A   Clear
11:55 AM 75.2 °F 50.0 °F 41% 29.96 in 10.0 mi West 6.9 mph - N/A   Clear
12:15 PM 75.2 °F 50.0 °F 41% 29.95 in 10.0 mi Calm Calm - N/A   Clear
12:35 PM 75.2 °F 50.0 °F 41% 29.94 in 10.0 mi Calm Calm 11.5 mph N/A   Clear
12:55 PM 77.0 °F 50.0 °F 39% 29.94 in 10.0 mi SW 6.9 mph - N/A   Clear
1:15 PM 77.0 °F 50.0 °F 39% 29.93 in 10.0 mi Variable 5.8 mph - N/A   Clear
1:35 PM 77.0 °F 50.0 °F 39% 29.93 in 10.0 mi SW 4.6 mph 11.5 mph N/A   Clear
1:55 PM 77.0 °F 50.0 °F 39% 29.92 in 10.0 mi Calm Calm 12.7 mph N/A   Clear
2:15 PM 78.8 °F 51.8 °F 39% 29.91 in 7.0 mi West 8.1 mph 13.8 mph N/A   Clear
2:35 PM 78.8 °F 51.8 °F 39% 29.91 in 10.0 mi Variable 6.9 mph 12.7 mph N/A   Clear
2:55 PM 77.0 °F 51.8 °F 41% 29.91 in 10.0 mi Calm Calm 12.7 mph N/A   Clear
3:15 PM 78.8 °F 51.8 °F 39% 29.90 in 10.0 mi Variable 5.8 mph 12.7 mph N/A   Clear
3:35 PM 78.8 °F 50.0 °F 36% 29.89 in 10.0 mi WSW 5.8 mph 12.7 mph N/A   Clear
3:55 PM 78.8 °F 50.0 °F 36% 29.89 in 10.0 mi SSW 9.2 mph - N/A   Clear
4:15 PM 78.8 °F 50.0 °F 36% 29.89 in 10.0 mi SW 10.4 mph - N/A   Clear
4:35 PM 78.8 °F 50.0 °F 36% 29.88 in 10.0 mi WSW 5.8 mph 13.8 mph N/A   Clear
4:55 PM 78.8 °F 48.2 °F 34% 29.88 in 10.0 mi West 8.1 mph - N/A   Clear
5:15 PM 78.8 °F 48.2 °F 34% 29.87 in 10.0 mi WSW 8.1 mph - N/A   Clear
5:35 PM 77.0 °F 46.4 °F 34% 29.87 in 10.0 mi SW 5.8 mph - N/A   Clear
5:55 PM 77.0 °F 42.8 °F 29% 29.86 in 10.0 mi SW 4.6 mph - N/A   Clear
6:15 PM 77.0 °F 42.8 °F 29% 29.86 in 10.0 mi Calm Calm - N/A   Clear
6:35 PM 75.2 °F 42.8 °F 31% 29.85 in 10.0 mi Calm Calm - N/A   Clear
6:55 PM 75.2 °F 42.8 °F 31% 29.85 in 10.0 mi Calm Calm - N/A   Clear
7:15 PM 73.4 °F 44.6 °F 36% 29.85 in 10.0 mi Calm Calm - N/A   Clear
7:35 PM 73.4 °F 48.2 °F 41% 29.85 in 10.0 mi South 8.1 mph 13.8 mph N/A   Clear
7:55 PM 71.6 °F 50.0 °F 46% 29.85 in 10.0 mi South 6.9 mph - N/A   Clear
8:15 PM 71.6 °F 50.0 °F 46% 29.86 in 10.0 mi South 3.5 mph - N/A   Clear
8:35 PM 69.8 °F 51.8 °F 53% 29.86 in 10.0 mi South 8.1 mph - N/A   Clear
8:55 PM 69.8 °F 51.8 °F 53% 29.86 in 10.0 mi South 5.8 mph 11.5 mph N/A   Clear
9:15 PM 68.0 °F 50.0 °F 52% 29.87 in 10.0 mi SSE 4.6 mph - N/A   Clear
9:35 PM 66.2 °F 50.0 °F 56% 29.87 in 10.0 mi SE 8.1 mph - N/A   Clear
9:55 PM 66.2 °F 48.2 °F 52% 29.88 in 10.0 mi SSE 6.9 mph - N/A   Clear
10:15 PM 66.2 °F 48.2 °F 52% 29.88 in 10.0 mi SSE 4.6 mph - N/A   Clear
10:35 PM 64.4 °F 50.0 °F 59% 29.88 in 10.0 mi SE 6.9 mph - N/A   Clear
10:55 PM 64.4 °F 50.0 °F 59% 29.88 in 10.0 mi SE 8.1 mph - N/A   Clear
11:15 PM 64.4 °F 50.0 °F 59% 29.89 in 10.0 mi SE 9.2 mph - N/A   Clear
11:35 PM 62.6 °F 48.2 °F 59% 29.89 in 10.0 mi ESE 8.1 mph - N/A   Clear
11:55 PM 62.6 °F 48.2 °F 59% 29.88 in 10.0 mi SE 9.2 mph - N/A   Clear